Time,TemperatureF,DewpointF,PressureIn,WindDirection,WindDirectionDegrees,WindSpeedMPH,WindSpeedGustMPH,Humidity,HourlyPrecipIn,Conditions,Clouds,dailyrainin,SoftwareType,DateUTC
2013-07-22 00:00:00,72.8,72.5,29.94,ESE,113,0.0,0.0,99,0.00,,---,1.62,VWS V14.01,2013-07-22 04:00:00,
2013-07-22 00:01:00,73.3,72.7,29.93,WSW,246,1.0,2.0,98,0.00,,---,0.00,VWS V14.01,2013-07-22 04:01:00,
2013-07-22 00:05:00,72.7,72.4,29.94,ESE,113,0.0,0.0,99,0.00,,---,1.62,VWS V14.01,2013-07-22 04:05:00,
2013-07-22 00:06:00,73.4,72.5,29.93,WSW,241,1.0,3.0,97,0.00,,---,0.00,VWS V14.01,2013-07-22 04:06:00,
2013-07-22 00:10:00,72.7,72.1,29.94,ESE,113,0.0,0.0,98,0.00,,---,1.62,VWS V14.01,2013-07-22 04:10:00,
2013-07-22 00:11:00,73.4,72.8,29.94,SSW,194,1.0,1.0,98,0.00,,---,0.00,VWS V14.01,2013-07-22 04:11:00,
2013-07-22 00:15:00,72.7,72.4,29.94,ESE,113,0.0,1.0,99,0.00,,---,1.62,VWS V14.01,2013-07-22 04:15:00,
2013-07-22 00:16:00,73.3,72.7,29.94,SSW,207,2.0,2.0,98,0.00,,---,0.00,VWS V14.01,2013-07-22 04:16:00,
2013-07-22 00:20:00,72.7,72.4,29.94,ESE,113,0.0,1.0,99,0.00,,---,1.62,VWS V14.01,2013-07-22 04:20:00,
2013-07-22 00:21:00,73.2,72.6,29.93,WSW,258,2.0,3.0,98,0.00,,---,0.00,VWS V14.01,2013-07-22 04:21:00,
2013-07-22 00:25:00,72.6,72.3,29.94,ESE,112,0.0,0.0,99,0.00,,---,1.62,VWS V14.01,2013-07-22 04:25:00,
2013-07-22 00:26:00,73.2,72.3,29.93,SSW,207,2.0,2.0,97,0.00,,---,0.00,VWS V14.01,2013-07-22 04:26:00,
2013-07-22 00:30:00,72.6,72.3,29.94,ESE,113,0.0,1.0,99,0.00,,---,1.62,VWS V14.01,2013-07-22 04:30:00,
2013-07-22 00:31:00,73.2,72.3,29.93,WSW,245,1.0,1.0,97,0.00,,---,0.00,VWS V14.01,2013-07-22 04:31:00,
2013-07-22 00:35:00,72.7,72.4,29.94,SE,146,0.0,1.0,99,0.00,,---,1.62,VWS V14.01,2013-07-22 04:35:00,
2013-07-22 00:36:00,73.2,72.3,29.93,SW,229,0.0,2.0,97,0.00,,---,0.00,VWS V14.01,2013-07-22 04:36:00,
2013-07-22 00:40:00,72.8,72.5,29.94,West,264,0.0,2.0,99,0.00,,---,1.62,VWS V14.01,2013-07-22 04:40:00,
2013-07-22 00:42:00,73.0,72.1,29.93,SW,214,0.0,0.0,97,0.00,,---,0.00,VWS V14.01,2013-07-22 04:42:00,
2013-07-22 00:45:00,72.9,72.6,29.94,SW,224,1.0,2.0,99,0.00,,---,1.62,VWS V14.01,2013-07-22 04:45:00,
2013-07-22 00:47:00,72.9,72.0,29.93,SW,233,0.0,1.0,97,0.00,,---,0.00,VWS V14.01,2013-07-22 04:47:00,
2013-07-22 00:50:00,73.1,72.5,29.93,SSW,207,0.0,3.0,98,0.00,,---,1.62,VWS V14.01,2013-07-22 04:50:00,
2013-07-22 00:52:00,72.7,71.8,29.92,SW,231,0.0,1.0,97,0.00,,---,0.00,VWS V14.01,2013-07-22 04:52:00,
2013-07-22 00:55:00,73.2,72.6,29.93,SW,226,0.0,4.0,98,0.00,,---,1.62,VWS V14.01,2013-07-22 04:55:00,
2013-07-22 00:57:00,72.5,71.6,29.92,SW,231,0.0,0.0,97,0.00,,---,0.00,VWS V14.01,2013-07-22 04:57:00,
2013-07-22 01:00:00,73.3,72.7,29.93,West,265,1.0,2.0,98,0.00,,---,0.00,VWS V14.01,2013-07-22 05:00:00,
2013-07-22 01:02:00,72.3,71.7,29.92,SW,231,0.0,1.0,98,0.00,,---,0.00,VWS V14.01,2013-07-22 05:02:00,
2013-07-22 01:05:00,73.4,72.5,29.93,WSW,252,3.0,3.0,97,0.00,,---,0.00,VWS V14.01,2013-07-22 05:05:00,
2013-07-22 01:07:00,72.2,71.6,29.92,SSW,199,0.0,0.0,98,0.00,,---,0.00,VWS V14.01,2013-07-22 05:07:00,
2013-07-22 01:10:00,73.4,72.5,29.94,WSW,248,0.0,3.0,97,0.00,,---,0.00,VWS V14.01,2013-07-22 05:10:00,
2013-07-22 01:12:00,72.1,71.5,29.92,SSW,199,0.0,0.0,98,0.00,,---,0.00,VWS V14.01,2013-07-22 05:12:00,
2013-07-22 01:15:00,73.3,72.7,29.94,SW,224,1.0,1.0,98,0.00,,---,0.00,VWS V14.01,2013-07-22 05:15:00,
2013-07-22 01:17:00,72.1,71.5,29.92,SW,234,0.0,2.0,98,0.00,,---,0.00,VWS V14.01,2013-07-22 05:17:00,
2013-07-22 01:20:00,73.2,72.6,29.94,SW,233,0.0,2.0,98,0.00,,---,0.00,VWS V14.01,2013-07-22 05:20:00,
2013-07-22 01:22:00,72.1,71.5,29.92,WSW,245,0.0,1.0,98,0.00,,---,0.00,VWS V14.01,2013-07-22 05:22:00,
2013-07-22 01:25:00,73.2,72.3,29.93,WSW,245,1.0,3.0,97,0.00,,---,0.00,VWS V14.01,2013-07-22 05:25:00,
2013-07-22 01:27:00,72.0,71.4,29.92,WSW,243,0.0,0.0,98,0.00,,---,0.00,VWS V14.01,2013-07-22 05:27:00,
2013-07-22 01:30:00,73.2,72.3,29.93,SW,218,1.0,2.0,97,0.00,,---,0.00,VWS V14.01,2013-07-22 05:30:00,
2013-07-22 01:32:00,71.9,71.3,29.92,WSW,242,0.0,0.0,98,0.00,,---,0.00,VWS V14.01,2013-07-22 05:32:00,
2013-07-22 01:35:00,73.2,72.3,29.93,WSW,245,0.0,1.0,97,0.00,,---,0.00,VWS V14.01,2013-07-22 05:35:00,
2013-07-22 01:37:00,71.9,71.3,29.92,WSW,243,0.0,1.0,98,0.00,,---,0.00,VWS V14.01,2013-07-22 05:37:00,
2013-07-22 01:40:00,73.0,72.1,29.93,SW,214,0.0,2.0,97,0.00,,---,0.00,VWS V14.01,2013-07-22 05:40:00,
2013-07-22 01:42:00,71.9,71.3,29.92,WSW,243,0.0,0.0,98,0.00,,---,0.00,VWS V14.01,2013-07-22 05:42:00,
2013-07-22 01:45:00,72.9,72.0,29.93,SW,234,1.0,1.0,97,0.00,,---,0.00,VWS V14.01,2013-07-22 05:45:00,
2013-07-22 01:47:00,71.9,71.3,29.92,West,274,0.0,1.0,98,0.00,,---,0.00,VWS V14.01,2013-07-22 05:47:00,
2013-07-22 01:50:00,72.8,71.9,29.92,SW,231,0.0,1.0,97,0.00,,---,0.00,VWS V14.01,2013-07-22 05:50:00,
2013-07-22 01:52:00,71.8,71.2,29.91,West,272,0.0,0.0,98,0.00,,---,0.00,VWS V14.01,2013-07-22 05:52:00,
2013-07-22 01:55:00,72.6,71.7,29.92,SW,231,0.0,1.0,97,0.00,,---,0.00,VWS V14.01,2013-07-22 05:55:00,
2013-07-22 01:57:00,71.7,71.1,29.91,West,271,0.0,1.0,98,0.00,,---,0.00,VWS V14.01,2013-07-22 05:57:00,
2013-07-22 02:00:00,72.4,71.5,29.92,SW,231,0.0,1.0,97,0.00,,---,0.00,VWS V14.01,2013-07-22 06:00:00,
2013-07-22 02:02:00,71.5,70.9,29.91,SW,224,0.0,1.0,98,0.00,,---,0.00,VWS V14.01,2013-07-22 06:02:00,
2013-07-22 02:05:00,72.3,71.7,29.92,SW,231,0.0,1.0,98,0.00,,---,0.00,VWS V14.01,2013-07-22 06:05:00,
2013-07-22 02:07:00,71.5,71.2,29.91,WSW,252,0.0,1.0,99,0.00,,---,0.00,VWS V14.01,2013-07-22 06:07:00,
2013-07-22 02:10:00,72.1,71.5,29.92,SSW,199,0.0,0.0,98,0.00,,---,0.00,VWS V14.01,2013-07-22 06:10:00,
2013-07-22 02:12:00,71.5,71.2,29.91,WSW,255,0.0,1.0,99,0.00,,---,0.00,VWS V14.01,2013-07-22 06:12:00,
2013-07-22 02:15:00,72.1,71.5,29.92,SW,217,0.0,1.0,98,0.00,,---,0.00,VWS V14.01,2013-07-22 06:15:00,
2013-07-22 02:17:00,71.5,71.2,29.91,WSW,255,0.0,1.0,99,0.00,,---,0.00,VWS V14.01,2013-07-22 06:17:00,
2013-07-22 02:20:00,72.0,71.4,29.92,WSW,245,1.0,2.0,98,0.00,,---,0.00,VWS V14.01,2013-07-22 06:20:00,
2013-07-22 02:22:00,71.5,70.9,29.90,WSW,255,0.0,0.0,98,0.00,,---,0.00,VWS V14.01,2013-07-22 06:22:00,
2013-07-22 02:25:00,72.1,71.5,29.92,WSW,242,0.0,2.0,98,0.00,,---,0.00,VWS V14.01,2013-07-22 06:25:00,
2013-07-22 02:27:00,71.3,70.7,29.91,WSW,255,0.0,0.0,98,0.00,,---,0.00,VWS V14.01,2013-07-22 06:27:00,
2013-07-22 02:30:00,72.0,71.4,29.92,WSW,243,0.0,1.0,98,0.00,,---,0.00,VWS V14.01,2013-07-22 06:30:00,
2013-07-22 02:32:00,71.2,70.9,29.91,West,262,1.0,1.0,99,0.00,,---,0.00,VWS V14.01,2013-07-22 06:32:00,
2013-07-22 02:35:00,71.9,71.3,29.92,WSW,243,0.0,1.0,98,0.00,,---,0.00,VWS V14.01,2013-07-22 06:35:00,
2013-07-22 02:37:00,71.3,71.0,29.91,SSW,203,0.0,1.0,99,0.00,,---,0.00,VWS V14.01,2013-07-22 06:37:00,
2013-07-22 02:40:00,71.9,71.3,29.92,WSW,243,0.0,1.0,98,0.00,,---,0.00,VWS V14.01,2013-07-22 06:40:00,
2013-07-22 02:42:00,71.3,71.0,29.91,WSW,240,1.0,1.0,99,0.00,,---,0.00,VWS V14.01,2013-07-22 06:42:00,
2013-07-22 02:45:00,71.9,71.3,29.92,WSW,243,0.0,1.0,98,0.00,,---,0.00,VWS V14.01,2013-07-22 06:45:00,
2013-07-22 02:47:00,71.3,70.7,29.91,WSW,257,1.0,2.0,98,0.00,,---,0.00,VWS V14.01,2013-07-22 06:47:00,
2013-07-22 02:50:00,71.8,71.2,29.91,West,273,0.0,1.0,98,0.00,,---,0.00,VWS V14.01,2013-07-22 06:50:00,
2013-07-22 02:52:00,71.2,70.9,29.90,WSW,244,1.0,2.0,99,0.00,,---,0.00,VWS V14.01,2013-07-22 06:52:00,
2013-07-22 02:55:00,71.7,71.1,29.91,West,272,0.0,1.0,98,0.00,,---,0.00,VWS V14.01,2013-07-22 06:55:00,
2013-07-22 02:57:00,71.2,70.6,29.90,WSW,249,0.0,1.0,98,0.00,,---,0.00,VWS V14.01,2013-07-22 06:57:00,
2013-07-22 03:00:00,71.6,71.0,29.91,West,271,0.0,1.0,98,0.00,,---,0.00,VWS V14.01,2013-07-22 07:00:00,
2013-07-22 03:02:00,71.2,70.9,29.90,WSW,241,1.0,2.0,99,0.00,,---,0.00,VWS V14.01,2013-07-22 07:02:00,
2013-07-22 03:05:00,71.5,70.9,29.91,WSW,252,0.0,1.0,98,0.00,,---,0.00,VWS V14.01,2013-07-22 07:05:00,
2013-07-22 03:07:00,71.1,70.5,29.90,SSW,209,0.0,2.0,98,0.00,,---,0.00,VWS V14.01,2013-07-22 07:07:00,
2013-07-22 03:10:00,71.5,71.2,29.91,WSW,255,1.0,1.0,99,0.00,,---,0.00,VWS V14.01,2013-07-22 07:10:00,
2013-07-22 03:12:00,71.1,70.8,29.90,SSW,202,1.0,3.0,99,0.00,,---,0.00,VWS V14.01,2013-07-22 07:12:00,
2013-07-22 03:15:00,71.5,71.2,29.91,WSW,255,0.0,1.0,99,0.00,,---,0.00,VWS V14.01,2013-07-22 07:15:00,
2013-07-22 03:17:00,71.1,70.8,29.90,WSW,238,1.0,3.0,99,0.00,,---,0.00,VWS V14.01,2013-07-22 07:17:00,
2013-07-22 03:20:00,71.5,70.9,29.91,WSW,255,0.0,1.0,98,0.00,,---,0.00,VWS V14.01,2013-07-22 07:20:00,
2013-07-22 03:22:00,71.1,70.5,29.89,SSE,160,2.0,5.0,98,0.00,,---,0.00,VWS V14.01,2013-07-22 07:22:00,
2013-07-22 03:25:00,71.4,70.8,29.90,WSW,255,0.0,0.0,98,0.00,,---,0.00,VWS V14.01,2013-07-22 07:25:00,
2013-07-22 03:27:00,71.0,70.4,29.89,West,269,1.0,2.0,98,0.00,,---,0.00,VWS V14.01,2013-07-22 07:27:00,
2013-07-22 03:30:00,71.2,70.6,29.91,WSW,255,0.0,1.0,98,0.00,,---,0.00,VWS V14.01,2013-07-22 07:30:00,
2013-07-22 03:32:00,71.1,70.5,29.89,SSW,203,1.0,3.0,98,0.00,,---,0.00,VWS V14.01,2013-07-22 07:32:00,
2013-07-22 03:35:00,71.3,71.0,29.91,SW,236,0.0,3.0,99,0.00,,---,0.00,VWS V14.01,2013-07-22 07:35:00,
2013-07-22 03:37:00,70.9,70.3,29.89,WSW,247,0.0,1.0,98,0.00,,---,0.00,VWS V14.01,2013-07-22 07:37:00,
2013-07-22 03:40:00,71.3,71.0,29.91,WSW,241,0.0,1.0,99,0.00,,---,0.00,VWS V14.01,2013-07-22 07:40:00,
2013-07-22 03:42:00,70.9,70.3,29.89,WSW,240,1.0,1.0,98,0.00,,---,0.00,VWS V14.01,2013-07-22 07:42:00,
2013-07-22 03:45:00,71.3,71.0,29.91,WSW,255,1.0,2.0,99,0.00,,---,0.00,VWS V14.01,2013-07-22 07:45:00,
2013-07-22 03:47:00,70.7,70.4,29.89,WSW,257,0.0,1.0,99,0.00,,---,0.00,VWS V14.01,2013-07-22 07:47:00,
2013-07-22 03:50:00,71.3,70.7,29.90,WSW,257,0.0,2.0,98,0.00,,---,0.00,VWS V14.01,2013-07-22 07:50:00,
2013-07-22 03:52:00,70.7,70.4,29.89,WSW,237,1.0,2.0,99,0.00,,---,0.00,VWS V14.01,2013-07-22 07:52:00,
2013-07-22 03:55:00,71.2,70.6,29.90,WSW,246,1.0,2.0,98,0.00,,---,0.00,VWS V14.01,2013-07-22 07:55:00,
2013-07-22 03:57:00,70.7,70.4,29.88,SW,228,0.0,1.0,99,0.00,,---,0.00,VWS V14.01,2013-07-22 07:57:00,
2013-07-22 04:00:00,71.2,70.9,29.90,SW,234,1.0,2.0,99,0.00,,---,0.00,VWS V14.01,2013-07-22 08:00:00,
2013-07-22 04:02:00,70.6,70.3,29.88,South,189,0.0,2.0,99,0.00,,---,0.00,VWS V14.01,2013-07-22 08:02:00,
2013-07-22 04:05:00,71.2,70.9,29.90,WSW,255,0.0,2.0,99,0.00,,---,0.00,VWS V14.01,2013-07-22 08:05:00,
2013-07-22 04:07:00,70.7,70.4,29.88,SSW,213,1.0,3.0,99,0.00,,---,0.00,VWS V14.01,2013-07-22 08:07:00,
2013-07-22 04:10:00,71.1,70.8,29.90,WSW,241,0.0,2.0,99,0.00,,---,0.00,VWS V14.01,2013-07-22 08:10:00,
2013-07-22 04:12:00,70.8,70.5,29.88,SW,232,1.0,3.0,99,0.00,,---,0.00,VWS V14.01,2013-07-22 08:12:00,
2013-07-22 04:15:00,71.1,70.8,29.90,WSW,238,2.0,3.0,99,0.00,,---,0.00,VWS V14.01,2013-07-22 08:15:00,
2013-07-22 04:17:00,70.7,70.1,29.88,WNW,286,0.0,5.0,98,0.00,,---,0.00,VWS V14.01,2013-07-22 08:17:00,
2013-07-22 04:20:00,71.1,70.8,29.90,SSW,205,0.0,5.0,99,0.00,,---,0.00,VWS V14.01,2013-07-22 08:20:00,
2013-07-22 04:22:00,70.7,70.1,29.89,West,266,1.0,2.0,98,0.00,,---,0.00,VWS V14.01,2013-07-22 08:22:00,
2013-07-22 04:25:00,71.1,70.5,29.89,SW,227,2.0,5.0,98,0.00,,---,0.00,VWS V14.01,2013-07-22 08:25:00,
2013-07-22 04:27:00,70.7,70.1,29.88,West,268,0.0,1.0,98,0.00,,---,0.00,VWS V14.01,2013-07-22 08:27:00,
2013-07-22 04:30:00,71.1,70.5,29.89,WSW,244,1.0,2.0,98,0.00,,---,0.00,VWS V14.01,2013-07-22 08:30:00,
2013-07-22 04:33:00,70.5,69.9,29.89,West,269,0.0,1.0,98,0.00,,---,0.00,VWS V14.01,2013-07-22 08:33:00,
2013-07-22 04:35:00,71.0,70.4,29.89,South,188,0.0,3.0,98,0.00,,---,0.00,VWS V14.01,2013-07-22 08:35:00,
2013-07-22 04:38:00,70.4,70.1,29.89,WNW,284,1.0,1.0,99,0.00,,---,0.00,VWS V14.01,2013-07-22 08:38:00,
2013-07-22 04:40:00,70.9,70.3,29.89,WSW,247,0.0,1.0,98,0.00,,---,0.00,VWS V14.01,2013-07-22 08:40:00,
2013-07-22 04:43:00,70.2,69.9,29.89,WNW,284,0.0,0.0,99,0.00,,---,0.00,VWS V14.01,2013-07-22 08:43:00,
2013-07-22 04:45:00,70.8,70.2,29.89,WSW,240,0.0,1.0,98,0.00,,---,0.00,VWS V14.01,2013-07-22 08:45:00,
2013-07-22 04:48:00,70.1,69.8,29.89,West,260,1.0,1.0,99,0.00,,---,0.00,VWS V14.01,2013-07-22 08:48:00,
2013-07-22 04:50:00,70.7,70.4,29.89,SW,219,0.0,1.0,99,0.00,,---,0.00,VWS V14.01,2013-07-22 08:50:00,
2013-07-22 04:53:00,70.1,69.8,29.89,WSW,252,0.0,1.0,99,0.00,,---,0.00,VWS V14.01,2013-07-22 08:53:00,
2013-07-22 04:55:00,70.7,70.4,29.89,WSW,248,1.0,2.0,99,0.00,,---,0.00,VWS V14.01,2013-07-22 08:55:00,
2013-07-22 04:58:00,70.0,69.7,29.89,SSE,160,0.0,1.0,99,0.00,,---,0.00,VWS V14.01,2013-07-22 08:58:00,
2013-07-22 05:00:00,70.6,70.3,29.88,SW,228,1.0,1.0,99,0.00,,---,0.00,VWS V14.01,2013-07-22 09:00:00,
2013-07-22 05:03:00,69.9,69.6,29.89,WSW,237,0.0,1.0,99,0.00,,---,0.00,VWS V14.01,2013-07-22 09:03:00,
2013-07-22 05:05:00,70.7,70.4,29.88,SW,228,1.0,2.0,99,0.00,,---,0.00,VWS V14.01,2013-07-22 09:05:00,
2013-07-22 05:08:00,70.0,69.7,29.89,WSW,238,2.0,3.0,99,0.00,,---,0.00,VWS V14.01,2013-07-22 09:08:00,
2013-07-22 05:10:00,70.8,70.5,29.88,SW,231,0.0,3.0,99,0.00,,---,0.00,VWS V14.01,2013-07-22 09:10:00,
2013-07-22 05:13:00,70.1,69.8,29.89,WSW,256,0.0,3.0,99,0.00,,---,0.00,VWS V14.01,2013-07-22 09:13:00,
2013-07-22 05:15:00,70.8,70.2,29.89,WSW,237,0.0,3.0,98,0.00,,---,0.00,VWS V14.01,2013-07-22 09:15:00,
2013-07-22 05:18:00,70.1,69.8,29.89,WSW,256,0.0,0.0,99,0.00,,---,0.00,VWS V14.01,2013-07-22 09:18:00,
2013-07-22 05:20:00,70.7,70.1,29.89,WSW,248,2.0,5.0,98,0.00,,---,0.00,VWS V14.01,2013-07-22 09:20:00,
2013-07-22 05:23:00,70.0,69.7,29.89,WSW,256,0.0,0.0,99,0.00,,---,0.00,VWS V14.01,2013-07-22 09:23:00,
2013-07-22 05:25:00,70.7,70.1,29.88,WNW,285,1.0,2.0,98,0.00,,---,0.00,VWS V14.01,2013-07-22 09:25:00,
2013-07-22 05:28:00,69.9,69.6,29.89,WSW,256,0.0,1.0,99,0.00,,---,0.00,VWS V14.01,2013-07-22 09:28:00,
2013-07-22 05:30:00,70.6,70.0,29.88,West,268,0.0,1.0,98,0.00,,---,0.00,VWS V14.01,2013-07-22 09:30:00,
2013-07-22 05:33:00,69.9,69.6,29.90,WSW,255,0.0,1.0,99,0.00,,---,0.00,VWS V14.01,2013-07-22 09:33:00,
2013-07-22 05:35:00,70.5,70.2,29.89,NW,309,0.0,2.0,99,0.00,,---,0.00,VWS V14.01,2013-07-22 09:35:00,
2013-07-22 05:38:00,69.9,69.6,29.89,WSW,255,0.0,0.0,99,0.00,,---,0.00,VWS V14.01,2013-07-22 09:38:00,
2013-07-22 05:40:00,70.3,70.0,29.89,WNW,284,0.0,1.0,99,0.00,,---,0.00,VWS V14.01,2013-07-22 09:40:00,
2013-07-22 05:43:00,69.8,69.5,29.89,WSW,254,0.0,0.0,99,0.00,,---,0.00,VWS V14.01,2013-07-22 09:43:00,
2013-07-22 05:45:00,70.2,69.9,29.89,WNW,283,0.0,0.0,99,0.00,,---,0.00,VWS V14.01,2013-07-22 09:45:00,
2013-07-22 05:48:00,69.6,69.3,29.89,WSW,255,0.0,1.0,99,0.00,,---,0.00,VWS V14.01,2013-07-22 09:48:00,
2013-07-22 05:50:00,70.1,69.8,29.89,WSW,252,1.0,1.0,99,0.00,,---,0.00,VWS V14.01,2013-07-22 09:50:00,
2013-07-22 05:53:00,69.5,69.2,29.89,WSW,253,0.0,1.0,99,0.00,,---,0.00,VWS V14.01,2013-07-22 09:53:00,
2013-07-22 05:55:00,70.0,69.7,29.89,SE,136,1.0,2.0,99,0.00,,---,0.00,VWS V14.01,2013-07-22 09:55:00,
2013-07-22 05:58:00,69.5,69.2,29.89,WSW,253,1.0,1.0,99,0.00,,---,0.00,VWS V14.01,2013-07-22 09:58:00,
2013-07-22 06:00:00,69.9,69.6,29.89,SSE,160,0.0,1.0,99,0.00,,---,0.00,VWS V14.01,2013-07-22 10:00:00,
2013-07-22 06:03:00,69.4,69.1,29.89,WSW,250,1.0,2.0,99,0.00,,---,0.00,VWS V14.01,2013-07-22 10:03:00,
2013-07-22 06:05:00,69.9,69.6,29.89,WSW,237,1.0,1.0,99,0.00,,---,0.00,VWS V14.01,2013-07-22 10:05:00,
2013-07-22 06:08:00,69.4,69.1,29.90,West,267,1.0,2.0,99,0.00,,---,0.00,VWS V14.01,2013-07-22 10:08:00,
2013-07-22 06:10:00,70.1,69.8,29.89,SW,216,0.0,4.0,99,0.00,,---,0.00,VWS V14.01,2013-07-22 10:10:00,
2013-07-22 06:13:00,69.5,69.2,29.90,WSW,253,1.0,3.0,99,0.00,,---,0.00,VWS V14.01,2013-07-22 10:13:00,
2013-07-22 06:15:00,70.1,69.8,29.89,WSW,255,0.0,3.0,99,0.00,,---,0.00,VWS V14.01,2013-07-22 10:15:00,
2013-07-22 06:18:00,69.6,69.3,29.90,West,262,3.0,3.0,99,0.00,,---,0.00,VWS V14.01,2013-07-22 10:18:00,
2013-07-22 06:20:00,70.0,69.7,29.89,WSW,256,0.0,1.0,99,0.00,,---,0.00,VWS V14.01,2013-07-22 10:20:00,
2013-07-22 06:23:00,69.5,69.2,29.90,West,264,0.0,2.0,99,0.00,,---,0.00,VWS V14.01,2013-07-22 10:23:00,
2013-07-22 06:25:00,69.9,69.6,29.89,WSW,256,0.0,1.0,99,0.00,,---,0.00,VWS V14.01,2013-07-22 10:25:00,
2013-07-22 06:28:00,69.5,69.2,29.91,West,259,1.0,3.0,99,0.00,,---,0.00,VWS V14.01,2013-07-22 10:28:00,
2013-07-22 06:30:00,69.9,69.6,29.89,WSW,255,0.0,1.0,99,0.00,,---,0.00,VWS V14.01,2013-07-22 10:30:00,
2013-07-22 06:33:00,69.4,69.1,29.90,WSW,238,0.0,1.0,99,0.00,,---,0.00,VWS V14.01,2013-07-22 10:33:00,
2013-07-22 06:35:00,69.9,69.6,29.90,WSW,255,0.0,1.0,99,0.00,,---,0.00,VWS V14.01,2013-07-22 10:35:00,
2013-07-22 06:38:00,69.4,69.1,29.91,WSW,241,0.0,1.0,99,0.00,,---,0.00,VWS V14.01,2013-07-22 10:38:00,
2013-07-22 06:40:00,69.8,69.5,29.89,WSW,255,0.0,0.0,99,0.00,,---,0.00,VWS V14.01,2013-07-22 10:40:00,
2013-07-22 06:43:00,69.4,69.1,29.91,SW,216,1.0,1.0,99,0.00,,---,0.00,VWS V14.01,2013-07-22 10:43:00,
2013-07-22 06:45:00,69.7,69.4,29.89,WSW,255,0.0,1.0,99,0.00,,---,0.00,VWS V14.01,2013-07-22 10:45:00,
2013-07-22 06:48:00,69.4,69.1,29.91,SW,236,1.0,1.0,99,0.00,,---,0.00,VWS V14.01,2013-07-22 10:48:00,
2013-07-22 06:50:00,69.6,69.3,29.89,WSW,254,0.0,1.0,99,0.00,,---,0.00,VWS V14.01,2013-07-22 10:50:00,
2013-07-22 06:53:00,69.4,69.1,29.91,SE,146,0.0,1.0,99,0.00,,---,0.00,VWS V14.01,2013-07-22 10:53:00,
2013-07-22 06:55:00,69.5,69.2,29.89,WSW,254,0.0,1.0,99,0.00,,---,0.00,VWS V14.01,2013-07-22 10:55:00,
2013-07-22 06:58:00,69.3,69.0,29.91,SW,221,2.0,2.0,99,0.00,,---,0.00,VWS V14.01,2013-07-22 10:58:00,
2013-07-22 07:00:00,69.5,69.2,29.89,WSW,252,0.0,1.0,99,0.00,,---,0.00,VWS V14.01,2013-07-22 11:00:00,
2013-07-22 07:03:00,69.5,69.2,29.91,WSW,254,2.0,4.0,99,0.00,,---,0.00,VWS V14.01,2013-07-22 11:03:00,
2013-07-22 07:05:00,69.4,69.1,29.89,WSW,257,1.0,2.0,99,0.00,,---,0.00,VWS V14.01,2013-07-22 11:05:00,
2013-07-22 07:08:00,69.6,69.3,29.91,SSW,207,0.0,2.0,99,0.00,,---,0.00,VWS V14.01,2013-07-22 11:08:00,
2013-07-22 07:10:00,69.5,69.2,29.90,West,280,0.0,2.0,99,0.00,,---,0.00,VWS V14.01,2013-07-22 11:10:00,
2013-07-22 07:13:00,69.7,69.4,29.91,SW,236,1.0,1.0,99,0.00,,---,0.00,VWS V14.01,2013-07-22 11:13:00,
2013-07-22 07:15:00,69.5,69.2,29.90,WSW,255,1.0,3.0,99,0.00,,---,0.00,VWS V14.01,2013-07-22 11:15:00,
2013-07-22 07:18:00,69.8,69.2,29.91,SW,235,0.0,1.0,98,0.00,,---,0.00,VWS V14.01,2013-07-22 11:18:00,
2013-07-22 07:20:00,69.5,69.2,29.90,SW,229,0.0,3.0,99,0.00,,---,0.00,VWS V14.01,2013-07-22 11:20:00,
2013-07-22 07:23:00,69.9,69.3,29.90,WSW,245,1.0,1.0,98,0.00,,---,0.00,VWS V14.01,2013-07-22 11:23:00,
2013-07-22 07:25:00,69.5,69.2,29.90,WSW,243,0.0,2.0,99,0.00,,---,0.00,VWS V14.01,2013-07-22 11:25:00,
2013-07-22 07:28:00,70.1,69.5,29.91,SW,235,2.0,2.0,98,0.00,,---,0.00,VWS V14.01,2013-07-22 11:28:00,
2013-07-22 07:30:00,69.5,69.2,29.91,WSW,250,0.0,3.0,99,0.00,,---,0.00,VWS V14.01,2013-07-22 11:30:00,
2013-07-22 07:33:00,70.3,69.7,29.91,SW,215,2.0,7.0,98,0.00,,---,0.00,VWS V14.01,2013-07-22 11:33:00,
2013-07-22 07:35:00,69.4,69.1,29.91,WSW,255,0.0,1.0,99,0.00,,---,0.00,VWS V14.01,2013-07-22 11:35:00,
2013-07-22 07:38:00,70.5,69.9,29.91,WSW,256,1.0,4.0,98,0.00,,---,0.00,VWS V14.01,2013-07-22 11:38:00,
2013-07-22 07:40:00,69.4,69.1,29.91,SSW,212,1.0,2.0,99,0.00,,---,0.00,VWS V14.01,2013-07-22 11:40:00,
2013-07-22 07:43:00,70.5,69.6,29.91,SW,235,1.0,3.0,97,0.00,,---,0.00,VWS V14.01,2013-07-22 11:43:00,
2013-07-22 07:45:00,69.4,69.1,29.91,SW,215,0.0,1.0,99,0.00,,---,0.00,VWS V14.01,2013-07-22 11:45:00,
2013-07-22 07:48:00,70.6,69.7,29.92,SW,214,3.0,3.0,97,0.00,,---,0.00,VWS V14.01,2013-07-22 11:48:00,
2013-07-22 07:50:00,69.4,69.1,29.91,WSW,238,0.0,1.0,99,0.00,,---,0.00,VWS V14.01,2013-07-22 11:50:00,
2013-07-22 07:53:00,70.7,69.8,29.91,SSE,167,3.0,3.0,97,0.00,,---,0.00,VWS V14.01,2013-07-22 11:53:00,
2013-07-22 07:55:00,69.4,69.1,29.91,SE,146,0.0,1.0,99,0.00,,---,0.00,VWS V14.01,2013-07-22 11:55:00,
2013-07-22 07:58:00,70.8,69.9,29.91,WSW,256,0.0,4.0,97,0.00,,---,0.00,VWS V14.01,2013-07-22 11:58:00,
2013-07-22 08:00:00,69.4,69.1,29.91,South,190,0.0,3.0,99,0.00,,---,0.00,VWS V14.01,2013-07-22 12:00:00,
2013-07-22 08:03:00,70.9,70.0,29.91,SSW,210,1.0,2.0,97,0.00,,---,0.00,VWS V14.01,2013-07-22 12:03:00,
2013-07-22 08:05:00,69.5,69.2,29.91,WSW,247,1.0,4.0,99,0.00,,---,0.00,VWS V14.01,2013-07-22 12:05:00,
2013-07-22 08:09:00,71.0,70.1,29.92,WSW,237,1.0,3.0,97,0.00,,---,0.00,VWS V14.01,2013-07-22 12:09:00,
2013-07-22 08:10:00,69.6,69.3,29.91,SSW,207,0.0,2.0,99,0.00,,---,0.00,VWS V14.01,2013-07-22 12:10:00,
2013-07-22 08:14:00,71.1,70.2,29.92,South,177,0.0,1.0,97,0.00,,---,0.00,VWS V14.01,2013-07-22 12:14:00,
2013-07-22 08:15:00,69.8,69.5,29.91,WSW,250,0.0,2.0,99,0.00,,---,0.00,VWS V14.01,2013-07-22 12:15:00,
2013-07-22 08:19:00,71.3,70.1,29.92,SW,234,0.0,3.0,96,0.00,,---,0.00,VWS V14.01,2013-07-22 12:19:00,
2013-07-22 08:20:00,69.9,69.3,29.90,SSW,196,1.0,3.0,98,0.00,,---,0.00,VWS V14.01,2013-07-22 12:20:00,
2013-07-22 08:24:00,71.4,70.2,29.92,SSE,159,0.0,2.0,96,0.00,,---,0.00,VWS V14.01,2013-07-22 12:24:00,
2013-07-22 08:25:00,70.0,69.4,29.91,West,271,2.0,3.0,98,0.00,,---,0.00,VWS V14.01,2013-07-22 12:25:00,
2013-07-22 08:29:00,71.5,70.3,29.92,WSW,248,1.0,5.0,96,0.00,,---,0.00,VWS V14.01,2013-07-22 12:29:00,
2013-07-22 08:30:00,70.2,69.6,29.91,West,268,5.0,5.0,98,0.00,,---,0.00,VWS V14.01,2013-07-22 12:30:00,
2013-07-22 08:34:00,71.7,70.5,29.92,SSW,206,1.0,2.0,96,0.00,,---,0.00,VWS V14.01,2013-07-22 12:34:00,
2013-07-22 08:35:00,70.4,69.8,29.91,WSW,243,0.0,7.0,98,0.00,,---,0.00,VWS V14.01,2013-07-22 12:35:00,
2013-07-22 08:39:00,71.9,70.4,29.92,SSE,151,2.0,5.0,95,0.00,,---,0.00,VWS V14.01,2013-07-22 12:39:00,
2013-07-22 08:40:00,70.5,69.6,29.91,SSW,211,1.0,4.0,97,0.00,,---,0.00,VWS V14.01,2013-07-22 12:40:00,
2013-07-22 08:44:00,72.0,70.5,29.92,WSW,238,1.0,5.0,95,0.00,,---,0.00,VWS V14.01,2013-07-22 12:44:00,
2013-07-22 08:45:00,70.6,69.7,29.92,SW,216,3.0,4.0,97,0.00,,---,0.00,VWS V14.01,2013-07-22 12:45:00,
2013-07-22 08:49:00,72.1,70.6,29.92,WSW,250,2.0,5.0,95,0.00,,---,0.00,VWS V14.01,2013-07-22 12:49:00,
2013-07-22 08:50:00,70.7,69.8,29.92,SW,234,2.0,5.0,97,0.00,,---,0.00,VWS V14.01,2013-07-22 12:50:00,
2013-07-22 08:54:00,72.2,70.7,29.92,SW,220,4.0,7.0,95,0.00,,---,0.00,VWS V14.01,2013-07-22 12:54:00,
2013-07-22 08:55:00,70.7,69.8,29.91,SSE,151,0.0,4.0,97,0.00,,---,0.00,VWS V14.01,2013-07-22 12:55:00,
2013-07-22 08:59:00,72.3,70.8,29.92,West,275,1.0,5.0,95,0.00,,---,0.00,VWS V14.01,2013-07-22 12:59:00,
2013-07-22 09:00:00,70.8,69.9,29.91,SW,233,1.0,4.0,97,0.00,,---,0.00,VWS V14.01,2013-07-22 13:00:00,
2013-07-22 09:04:00,72.3,70.8,29.92,SW,225,1.0,3.0,95,0.00,,---,0.00,VWS V14.01,2013-07-22 13:04:00,
2013-07-22 09:05:00,70.9,70.0,29.92,WSW,239,2.0,2.0,97,0.00,,---,0.00,VWS V14.01,2013-07-22 13:05:00,
2013-07-22 09:09:00,72.3,70.8,29.92,South,179,2.0,7.0,95,0.00,,---,0.00,VWS V14.01,2013-07-22 13:09:00,
2013-07-22 09:10:00,71.1,70.2,29.92,SW,226,0.0,3.0,97,0.00,,---,0.00,VWS V14.01,2013-07-22 13:10:00,
2013-07-22 09:14:00,72.3,70.8,29.92,WSW,257,1.0,4.0,95,0.00,,---,0.00,VWS V14.01,2013-07-22 13:14:00,
2013-07-22 09:15:00,71.1,70.2,29.91,South,177,0.0,1.0,97,0.00,,---,0.00,VWS V14.01,2013-07-22 13:15:00,
2013-07-22 09:19:00,72.3,70.8,29.92,SE,135,0.0,2.0,95,0.00,,---,0.00,VWS V14.01,2013-07-22 13:19:00,
2013-07-22 09:20:00,71.3,70.1,29.92,SW,231,2.0,3.0,96,0.00,,---,0.00,VWS V14.01,2013-07-22 13:20:00,
2013-07-22 09:24:00,72.4,70.9,29.92,WSW,251,0.0,3.0,95,0.00,,---,0.00,VWS V14.01,2013-07-22 13:24:00,
2013-07-22 09:25:00,71.4,70.2,29.92,WSW,254,1.0,2.0,96,0.00,,---,0.00,VWS V14.01,2013-07-22 13:25:00,
2013-07-22 09:29:00,72.5,70.7,29.92,SW,219,1.0,5.0,94,0.00,,---,0.00,VWS V14.01,2013-07-22 13:29:00,
2013-07-22 09:30:00,71.6,70.4,29.92,SE,143,2.0,5.0,96,0.00,,---,0.00,VWS V14.01,2013-07-22 13:30:00,
2013-07-22 09:34:00,72.6,70.8,29.92,ESE,103,1.0,5.0,94,0.00,,---,0.00,VWS V14.01,2013-07-22 13:34:00,
2013-07-22 09:35:00,71.8,70.6,29.92,SE,143,2.0,6.0,96,0.00,,---,0.00,VWS V14.01,2013-07-22 13:35:00,
2013-07-22 09:39:00,72.8,71.0,29.92,SSE,162,2.0,6.0,94,0.00,,---,0.00,VWS V14.01,2013-07-22 13:39:00,
2013-07-22 09:40:00,71.9,70.4,29.92,SE,130,0.0,5.0,95,0.00,,---,0.00,VWS V14.01,2013-07-22 13:40:00,
2013-07-22 09:44:00,73.0,71.2,29.92,South,173,2.0,4.0,94,0.00,,---,0.00,VWS V14.01,2013-07-22 13:44:00,
2013-07-22 09:45:00,72.0,70.5,29.92,South,174,4.0,5.0,95,0.00,,---,0.00,VWS V14.01,2013-07-22 13:45:00,
2013-07-22 09:49:00,73.1,71.3,29.92,SSE,159,2.0,7.0,94,0.00,,---,0.00,VWS V14.01,2013-07-22 13:49:00,
2013-07-22 09:50:00,72.1,70.6,29.92,WSW,253,2.0,5.0,95,0.00,,---,0.00,VWS V14.01,2013-07-22 13:50:00,
2013-07-22 09:54:00,73.2,71.4,29.92,SW,229,1.0,2.0,94,0.00,,---,0.00,VWS V14.01,2013-07-22 13:54:00,
2013-07-22 09:55:00,72.2,70.7,29.92,South,186,0.0,7.0,95,0.00,,---,0.00,VWS V14.01,2013-07-22 13:55:00,
2013-07-22 09:59:00,73.3,71.2,29.92,West,265,2.0,6.0,93,0.00,,---,0.00,VWS V14.01,2013-07-22 13:59:00,
2013-07-22 10:00:00,72.2,70.7,29.92,SSW,210,0.0,5.0,95,0.00,,---,0.00,VWS V14.01,2013-07-22 14:00:00,
2013-07-22 10:04:00,73.4,71.3,29.92,SSE,165,2.0,6.0,93,0.00,,---,0.00,VWS V14.01,2013-07-22 14:04:00,
2013-07-22 10:05:00,72.3,70.8,29.92,WSW,249,2.0,3.0,95,0.00,,---,0.00,VWS V14.01,2013-07-22 14:05:00,
2013-07-22 10:09:00,73.5,71.4,29.92,SSW,194,4.0,8.0,93,0.00,,---,0.00,VWS V14.01,2013-07-22 14:09:00,
2013-07-22 10:10:00,72.3,70.5,29.92,West,263,1.0,7.0,94,0.00,,---,0.00,VWS V14.01,2013-07-22 14:10:00,
2013-07-22 10:14:00,73.6,71.5,29.92,SW,219,6.0,6.0,93,0.00,,---,0.00,VWS V14.01,2013-07-22 14:14:00,
2013-07-22 10:15:00,72.3,70.8,29.92,South,181,1.0,4.0,95,0.00,,---,0.00,VWS V14.01,2013-07-22 14:15:00,
2013-07-22 10:19:00,73.7,71.6,29.92,WSW,248,1.0,6.0,93,0.00,,---,0.00,VWS V14.01,2013-07-22 14:19:00,
2013-07-22 10:20:00,72.3,70.8,29.92,NE,45,2.0,3.0,95,0.00,,---,0.00,VWS V14.01,2013-07-22 14:20:00,
2013-07-22 10:24:00,73.7,71.6,29.92,West,269,4.0,7.0,93,0.00,,---,0.00,VWS V14.01,2013-07-22 14:24:00,
2013-07-22 10:25:00,72.4,70.9,29.92,South,187,4.0,4.0,95,0.00,,---,0.00,VWS V14.01,2013-07-22 14:25:00,
2013-07-22 10:29:00,73.7,71.2,29.92,South,170,3.0,7.0,92,0.00,,---,0.00,VWS V14.01,2013-07-22 14:29:00,
2013-07-22 10:30:00,72.5,71.0,29.92,SW,219,0.0,5.0,95,0.00,,---,0.00,VWS V14.01,2013-07-22 14:30:00,
2013-07-22 10:34:00,73.8,71.3,29.92,SW,223,4.0,8.0,92,0.00,,---,0.00,VWS V14.01,2013-07-22 14:34:00,
2013-07-22 10:35:00,72.7,70.9,29.92,WNW,295,1.0,5.0,94,0.00,,---,0.00,VWS V14.01,2013-07-22 14:35:00,
2013-07-22 10:39:00,74.0,71.5,29.92,SW,227,4.0,8.0,92,0.00,,---,0.00,VWS V14.01,2013-07-22 14:39:00,
2013-07-22 10:40:00,72.9,71.1,29.92,SW,234,4.0,6.0,94,0.00,,---,0.00,VWS V14.01,2013-07-22 14:40:00,
2013-07-22 10:44:00,74.0,71.5,29.92,SW,226,4.0,6.0,92,0.00,,---,0.00,VWS V14.01,2013-07-22 14:44:00,
2013-07-22 10:45:00,73.0,71.2,29.92,South,170,7.0,7.0,94,0.00,,---,0.00,VWS V14.01,2013-07-22 14:45:00,
2013-07-22 10:49:00,74.2,72.1,29.92,West,265,0.0,3.0,93,0.00,,---,0.00,VWS V14.01,2013-07-22 14:49:00,
2013-07-22 10:50:00,73.1,71.3,29.92,West,266,1.0,7.0,94,0.00,,---,0.00,VWS V14.01,2013-07-22 14:50:00,
2013-07-22 10:54:00,74.6,71.8,29.92,ENE,70,0.0,3.0,91,0.00,,---,0.00,VWS V14.01,2013-07-22 14:54:00,
2013-07-22 10:55:00,73.2,71.4,29.92,WSW,251,3.0,4.0,94,0.00,,---,0.00,VWS V14.01,2013-07-22 14:55:00,
2013-07-22 10:59:00,74.8,72.0,29.92,SW,231,1.0,5.0,91,0.00,,---,0.00,VWS V14.01,2013-07-22 14:59:00,
2013-07-22 11:00:00,73.3,71.2,29.92,WSW,240,1.0,6.0,93,0.00,,---,0.00,VWS V14.01,2013-07-22 15:00:00,
2013-07-22 11:04:00,75.1,72.3,29.92,WSW,238,2.0,3.0,91,0.00,,---,0.00,VWS V14.01,2013-07-22 15:04:00,
2013-07-22 11:05:00,73.4,71.3,29.92,SW,230,0.0,6.0,93,0.00,,---,0.00,VWS V14.01,2013-07-22 15:05:00,
2013-07-22 11:09:00,75.2,72.1,29.92,SE,143,1.0,8.0,90,0.00,,---,0.00,VWS V14.01,2013-07-22 15:09:00,
2013-07-22 11:10:00,73.5,71.4,29.92,SSW,208,3.0,8.0,93,0.00,,---,0.00,VWS V14.01,2013-07-22 15:10:00,
2013-07-22 11:14:00,75.2,72.1,29.92,WSW,247,4.0,8.0,90,0.00,,---,0.00,VWS V14.01,2013-07-22 15:14:00,
2013-07-22 11:15:00,73.6,71.5,29.92,South,184,2.0,6.0,93,0.00,,---,0.00,VWS V14.01,2013-07-22 15:15:00,
2013-07-22 11:19:00,75.4,72.3,29.92,SSE,166,2.0,7.0,90,0.00,,---,0.00,VWS V14.01,2013-07-22 15:19:00,
2013-07-22 11:20:00,73.7,71.6,29.92,WSW,237,6.0,6.0,93,0.00,,---,0.00,VWS V14.01,2013-07-22 15:20:00,
2013-07-22 11:24:00,75.6,72.5,29.92,ESE,120,2.0,8.0,90,0.00,,---,0.00,VWS V14.01,2013-07-22 15:24:00,
2013-07-22 11:25:00,73.7,71.2,29.92,WSW,240,6.0,7.0,92,0.00,,---,0.00,VWS V14.01,2013-07-22 15:25:00,
2013-07-22 11:29:00,75.9,72.4,29.92,South,169,1.0,8.0,89,0.00,,---,0.00,VWS V14.01,2013-07-22 15:29:00,
2013-07-22 11:30:00,73.7,71.2,29.92,WSW,240,6.0,7.0,92,0.00,,---,0.00,VWS V14.01,2013-07-22 15:30:00,
2013-07-22 11:34:00,76.2,72.4,29.92,WSW,241,2.0,7.0,88,0.00,,---,0.00,VWS V14.01,2013-07-22 15:34:00,
2013-07-22 11:35:00,73.8,71.3,29.92,SW,217,1.0,8.0,92,0.00,,---,0.00,VWS V14.01,2013-07-22 15:35:00,
2013-07-22 11:39:00,76.4,72.6,29.92,South,187,1.0,10.0,88,0.00,,---,0.00,VWS V14.01,2013-07-22 15:39:00,
2013-07-22 11:40:00,74.0,71.5,29.92,SW,217,4.0,8.0,92,0.00,,---,0.00,VWS V14.01,2013-07-22 15:40:00,
2013-07-22 11:44:00,76.5,72.7,29.92,West,265,4.0,7.0,88,0.00,,---,0.00,VWS V14.01,2013-07-22 15:44:00,
2013-07-22 11:45:00,74.0,71.5,29.92,SSW,198,1.0,6.0,92,0.00,,---,0.00,VWS V14.01,2013-07-22 15:45:00,
2013-07-22 11:50:00,76.7,72.9,29.92,ENE,78,0.0,7.0,88,0.00,,---,0.00,VWS V14.01,2013-07-22 15:50:00,
2013-07-22 11:55:00,77.0,72.8,29.91,WNW,296,1.0,6.0,87,0.00,,---,0.00,VWS V14.01,2013-07-22 15:55:00,
2013-07-22 12:00:00,77.4,72.9,29.91,SSW,193,6.0,8.0,86,0.00,,---,0.00,VWS V14.01,2013-07-22 16:00:00,
2013-07-22 12:05:00,77.5,73.0,29.91,WSW,252,2.0,9.0,86,0.00,,---,0.00,VWS V14.01,2013-07-22 16:05:00,
2013-07-22 12:10:00,78.0,73.1,29.91,SW,215,5.0,7.0,85,0.00,,---,0.00,VWS V14.01,2013-07-22 16:10:00,
2013-07-22 12:15:00,78.3,73.1,29.91,South,175,2.0,7.0,84,0.00,,---,0.00,VWS V14.01,2013-07-22 16:15:00,
2013-07-22 12:20:00,78.7,73.1,29.91,SE,146,5.0,5.0,83,0.00,,---,0.00,VWS V14.01,2013-07-22 16:20:00,
2013-07-22 12:25:00,79.2,73.6,29.91,SW,225,6.0,6.0,83,0.00,,---,0.00,VWS V14.01,2013-07-22 16:25:00,
2013-07-22 12:30:00,79.0,73.0,29.91,South,169,1.0,2.0,82,0.00,,---,0.00,VWS V14.01,2013-07-22 16:30:00,
2013-07-22 12:35:00,79.0,73.4,29.91,SE,136,1.0,1.0,83,0.00,,---,0.00,VWS V14.01,2013-07-22 16:35:00,
2013-07-22 12:40:00,79.4,73.4,29.91,West,259,4.0,5.0,82,0.00,,---,0.00,VWS V14.01,2013-07-22 16:40:00,
2013-07-22 12:45:00,79.7,73.4,29.90,SSE,155,8.0,12.0,81,0.00,,---,0.00,VWS V14.01,2013-07-22 16:45:00,
2013-07-22 12:50:00,79.9,73.2,29.90,SSE,161,5.0,9.0,80,0.00,,---,0.00,VWS V14.01,2013-07-22 16:50:00,
2013-07-22 12:55:00,80.0,73.7,29.90,SSE,163,3.0,9.0,81,0.00,,---,0.00,VWS V14.01,2013-07-22 16:55:00,
2013-07-22 13:00:00,80.8,73.7,29.90,SW,214,5.0,8.0,79,0.00,,---,0.00,VWS V14.01,2013-07-22 17:00:00,
2013-07-22 13:05:00,81.5,73.6,29.89,SSE,160,6.0,6.0,77,0.00,,---,0.00,VWS V14.01,2013-07-22 17:05:00,
2013-07-22 13:10:00,82.2,73.5,29.89,SSE,148,7.0,7.0,75,0.00,,---,0.00,VWS V14.01,2013-07-22 17:10:00,
2013-07-22 13:15:00,82.3,73.2,29.89,SSW,213,11.0,11.0,74,0.00,,---,0.00,VWS V14.01,2013-07-22 17:15:00,
2013-07-22 13:20:00,82.1,72.6,29.88,SW,232,8.0,10.0,73,0.00,,---,0.00,VWS V14.01,2013-07-22 17:20:00,
2013-07-22 13:25:00,82.0,73.3,29.88,WNW,297,2.0,4.0,75,0.00,,---,0.00,VWS V14.01,2013-07-22 17:25:00,
2013-07-22 13:30:00,81.9,72.8,29.88,ESE,122,4.0,14.0,74,0.00,,---,0.00,VWS V14.01,2013-07-22 17:30:00,
2013-07-22 13:35:00,82.0,72.9,29.88,SSW,212,4.0,6.0,74,0.00,,---,0.00,VWS V14.01,2013-07-22 17:35:00,
2013-07-22 13:40:00,81.5,72.8,29.88,West,260,7.0,7.0,75,0.00,,---,0.00,VWS V14.01,2013-07-22 17:40:00,
2013-07-22 13:45:00,81.5,72.8,29.88,West,279,5.0,8.0,75,0.00,,---,0.00,VWS V14.01,2013-07-22 17:45:00,
2013-07-22 13:50:00,81.3,73.0,29.88,WSW,245,2.0,3.0,76,0.00,,---,0.00,VWS V14.01,2013-07-22 17:50:00,
2013-07-22 13:55:00,81.2,72.9,29.88,West,269,3.0,4.0,76,0.00,,---,0.00,VWS V14.01,2013-07-22 17:55:00,
2013-07-22 14:00:00,80.9,73.0,29.87,South,170,3.0,3.0,77,0.00,,---,0.00,VWS V14.01,2013-07-22 18:00:00,
2013-07-22 14:05:00,80.4,72.5,29.87,SW,232,4.0,6.0,77,0.00,,---,0.00,VWS V14.01,2013-07-22 18:05:00,
2013-07-22 14:10:00,80.3,73.2,29.87,WSW,243,1.0,7.0,79,0.00,,---,0.00,VWS V14.01,2013-07-22 18:10:00,
2013-07-22 14:15:00,80.7,73.2,29.86,SSW,212,1.0,3.0,78,0.00,,---,0.00,VWS V14.01,2013-07-22 18:15:00,
2013-07-22 14:20:00,82.1,72.6,29.88,SW,230,10.0,11.0,73,0.00,,---,0.00,VWS V14.01,2013-07-22 18:20:00,
2013-07-22 14:21:00,82.1,74.6,29.84,SSW,193,2.0,3.0,78,0.00,,---,0.00,VWS V14.01,2013-07-22 18:21:00,
2013-07-22 14:25:00,82.0,73.3,29.88,West,275,4.0,11.0,75,0.00,,---,0.00,VWS V14.01,2013-07-22 18:25:00,
2013-07-22 14:27:00,82.9,73.8,29.84,SE,145,7.0,11.0,74,0.00,,---,0.00,VWS V14.01,2013-07-22 18:27:00,
2013-07-22 14:30:00,81.9,72.8,29.88,ESE,122,4.0,14.0,74,0.00,,---,0.00,VWS V14.01,2013-07-22 18:30:00,
2013-07-22 14:32:00,82.8,72.9,29.83,SW,231,1.0,8.0,72,0.00,,---,0.00,VWS V14.01,2013-07-22 18:32:00,
2013-07-22 14:35:00,82.0,72.9,29.88,South,187,6.0,9.0,74,0.00,,---,0.00,VWS V14.01,2013-07-22 18:35:00,
2013-07-22 14:38:00,83.2,72.4,29.83,SSE,160,4.0,12.0,70,0.00,,---,0.00,VWS V14.01,2013-07-22 18:38:00,
2013-07-22 14:40:00,81.5,72.8,29.88,West,264,5.0,12.0,75,0.00,,---,0.00,VWS V14.01,2013-07-22 18:40:00,
2013-07-22 14:43:00,83.4,73.4,29.84,WSW,250,8.0,11.0,72,0.00,,---,0.00,VWS V14.01,2013-07-22 18:43:00,
2013-07-22 14:45:00,81.6,72.9,29.88,SW,214,8.0,11.0,75,0.00,,---,0.00,VWS V14.01,2013-07-22 18:45:00,
2013-07-22 14:48:00,83.2,72.8,29.83,WSW,252,4.0,12.0,71,0.00,,---,0.00,VWS V14.01,2013-07-22 18:48:00,
2013-07-22 14:50:00,81.3,73.0,29.88,West,267,3.0,10.0,76,0.00,,---,0.00,VWS V14.01,2013-07-22 18:50:00,
2013-07-22 14:53:00,83.0,72.6,29.83,WSW,249,4.0,12.0,71,0.00,,---,0.00,VWS V14.01,2013-07-22 18:53:00,
2013-07-22 14:55:00,81.2,72.9,29.88,SSW,205,3.0,10.0,76,0.00,,---,0.00,VWS V14.01,2013-07-22 18:55:00,
2013-07-22 14:59:00,82.8,72.9,29.83,South,184,4.0,12.0,72,0.00,,---,0.00,VWS V14.01,2013-07-22 18:59:00,
2013-07-22 15:00:00,80.9,73.0,29.88,West,265,2.0,4.0,77,0.00,,---,0.00,VWS V14.01,2013-07-22 19:00:00,
2013-07-22 15:04:00,82.6,73.1,29.83,West,269,2.0,10.0,73,0.00,,---,0.00,VWS V14.01,2013-07-22 19:04:00,
2013-07-22 15:05:00,80.5,72.6,29.88,WSW,256,5.0,7.0,77,0.00,,---,0.00,VWS V14.01,2013-07-22 19:05:00,
2013-07-22 15:09:00,82.8,73.3,29.82,West,272,2.0,10.0,73,0.00,,---,0.00,VWS V14.01,2013-07-22 19:09:00,
2013-07-22 15:10:00,80.3,72.8,29.87,WNW,286,0.0,6.0,78,0.00,,---,0.00,VWS V14.01,2013-07-22 19:10:00,
2013-07-22 15:14:00,83.0,73.1,29.82,SSW,208,8.0,13.0,72,0.00,,---,0.00,VWS V14.01,2013-07-22 19:14:00,
2013-07-22 15:15:00,80.6,73.1,29.86,SW,224,3.0,7.0,78,0.00,,---,0.00,VWS V14.01,2013-07-22 19:15:00,
2013-07-22 15:19:00,83.7,74.1,29.82,WNW,299,7.0,10.0,73,0.00,,---,0.00,VWS V14.01,2013-07-22 19:19:00,
2013-07-22 15:20:00,81.6,73.7,29.85,SSE,152,1.0,3.0,77,0.00,,---,0.00,VWS V14.01,2013-07-22 19:20:00,
2013-07-22 15:24:00,83.6,73.2,29.82,WNW,283,4.0,11.0,71,0.00,,---,0.00,VWS V14.01,2013-07-22 19:24:00,
2013-07-22 15:25:00,82.7,74.4,29.84,WSW,256,4.0,5.0,76,0.00,,---,0.00,VWS V14.01,2013-07-22 19:25:00,
2013-07-22 15:30:00,83.4,73.4,29.82,WSW,243,8.0,8.0,72,0.00,,---,0.00,VWS V14.01,2013-07-22 19:30:00,
2013-07-22 15:35:00,83.8,74.2,29.82,SE,142,0.0,4.0,73,0.00,,---,0.00,VWS V14.01,2013-07-22 19:35:00,
2013-07-22 15:40:00,83.3,72.9,29.83,West,276,5.0,12.0,71,0.00,,---,0.00,VWS V14.01,2013-07-22 19:40:00,
2013-07-22 15:41:00,84.0,74.0,29.82,SSE,157,6.0,7.0,72,0.00,,---,0.00,VWS V14.01,2013-07-22 19:41:00,
2013-07-22 15:45:00,83.4,73.0,29.83,WSW,242,4.0,11.0,71,0.00,,---,0.00,VWS V14.01,2013-07-22 19:45:00,
2013-07-22 15:46:00,84.3,73.5,29.82,SE,142,5.0,10.0,70,0.00,,---,0.00,VWS V14.01,2013-07-22 19:46:00,
2013-07-22 15:50:00,83.1,72.7,29.83,NE,53,2.0,12.0,71,0.00,,---,0.00,VWS V14.01,2013-07-22 19:50:00,
2013-07-22 15:51:00,84.7,73.8,29.82,SE,134,6.0,17.0,70,0.00,,---,0.00,VWS V14.01,2013-07-22 19:51:00,
2013-07-22 15:55:00,82.9,73.4,29.83,SW,228,0.0,12.0,73,0.00,,---,0.00,VWS V14.01,2013-07-22 19:55:00,
2013-07-22 15:57:00,84.5,72.8,29.82,WSW,249,13.0,16.0,68,0.00,,---,0.00,VWS V14.01,2013-07-22 19:57:00,
2013-07-22 16:00:00,82.7,72.8,29.83,WSW,241,5.0,12.0,72,0.00,,---,0.00,VWS V14.01,2013-07-22 20:00:00,
2013-07-22 16:02:00,84.6,73.3,29.81,WNW,283,8.0,10.0,69,0.00,,---,0.00,VWS V14.01,2013-07-22 20:02:00,
2013-07-22 16:05:00,82.6,73.1,29.83,SSW,209,3.0,10.0,73,0.00,,---,0.00,VWS V14.01,2013-07-22 20:05:00,
2013-07-22 16:07:00,84.4,72.7,29.81,SSW,212,5.0,10.0,68,0.00,,---,0.00,VWS V14.01,2013-07-22 20:07:00,
2013-07-22 16:10:00,82.8,72.9,29.82,WSW,246,5.0,11.0,72,0.00,,---,0.00,VWS V14.01,2013-07-22 20:10:00,
2013-07-22 16:12:00,83.7,72.9,29.81,West,274,3.0,8.0,70,0.00,,---,0.00,VWS V14.01,2013-07-22 20:12:00,
2013-07-22 16:15:00,83.0,73.1,29.82,SSW,206,7.0,13.0,72,0.00,,---,0.00,VWS V14.01,2013-07-22 20:15:00,
2013-07-22 16:16:00,84.0,72.3,29.81,SW,233,6.0,12.0,68,0.00,,---,0.00,VWS V14.01,2013-07-22 20:16:00,
2013-07-22 16:17:00,84.0,72.3,29.81,WSW,252,8.0,12.0,68,0.00,,---,0.00,VWS V14.01,2013-07-22 20:17:00,
2013-07-22 16:18:00,83.9,72.2,29.81,WNW,292,3.0,12.0,68,0.00,,---,0.00,VWS V14.01,2013-07-22 20:18:00,
2013-07-22 16:20:00,83.7,74.1,29.82,West,268,7.0,10.0,73,0.00,,---,0.00,VWS V14.01,2013-07-22 20:20:00,
2013-07-22 16:23:00,84.1,72.0,29.81,WSW,237,3.0,7.0,67,0.00,,---,0.00,VWS V14.01,2013-07-22 20:23:00,
2013-07-22 16:25:00,83.6,73.2,29.82,West,274,4.0,11.0,71,0.00,,---,0.00,VWS V14.01,2013-07-22 20:25:00,
2013-07-22 16:28:00,84.4,71.8,29.81,West,259,8.0,11.0,66,0.00,,---,0.00,VWS V14.01,2013-07-22 20:28:00,
2013-07-22 16:30:00,83.4,73.4,29.82,WSW,243,8.0,8.0,72,0.00,,---,0.00,VWS V14.01,2013-07-22 20:30:00,
2013-07-22 16:33:00,84.6,72.0,29.81,SW,222,8.0,13.0,66,0.00,,---,0.00,VWS V14.01,2013-07-22 20:33:00,
2013-07-22 16:35:00,83.7,73.7,29.82,SSW,207,2.0,14.0,72,0.00,,---,0.00,VWS V14.01,2013-07-22 20:35:00,
2013-07-22 16:38:00,84.3,72.2,29.81,WSW,254,4.0,7.0,67,0.00,,---,0.00,VWS V14.01,2013-07-22 20:38:00,
2013-07-22 16:40:00,83.9,73.5,29.82,NW,326,2.0,7.0,71,0.00,,---,0.00,VWS V14.01,2013-07-22 20:40:00,
2013-07-22 16:43:00,84.1,72.0,29.81,WSW,250,7.0,7.0,67,0.00,,---,0.00,VWS V14.01,2013-07-22 20:43:00,
2013-07-22 16:45:00,84.1,73.3,29.81,SE,146,3.0,12.0,70,0.00,,---,0.00,VWS V14.01,2013-07-22 20:45:00,
2013-07-22 16:48:00,84.1,72.4,29.81,SW,236,11.0,11.0,68,0.00,,---,0.00,VWS V14.01,2013-07-22 20:48:00,
2013-07-22 16:50:00,84.8,74.4,29.82,WNW,293,5.0,17.0,71,0.00,,---,0.00,VWS V14.01,2013-07-22 20:50:00,
2013-07-22 16:53:00,84.1,72.8,29.81,West,269,1.0,3.0,69,0.00,,---,0.00,VWS V14.01,2013-07-22 20:53:00,
2013-07-22 16:55:00,84.8,73.5,29.82,SSW,200,6.0,17.0,69,0.00,,---,0.00,VWS V14.01,2013-07-22 20:55:00,
2013-07-22 16:58:00,84.2,72.1,29.82,SW,225,5.0,6.0,67,0.00,,---,0.00,VWS V14.01,2013-07-22 20:58:00,
2013-07-22 17:00:00,84.3,73.0,29.81,SW,219,7.0,16.0,69,0.00,,---,0.00,VWS V14.01,2013-07-22 21:00:00,
2013-07-22 17:03:00,84.5,73.7,29.81,SE,146,0.0,2.0,70,0.00,,---,0.00,VWS V14.01,2013-07-22 21:03:00,
2013-07-22 17:05:00,84.6,72.0,29.81,West,262,3.0,12.0,66,0.00,,---,0.00,VWS V14.01,2013-07-22 21:05:00,
2013-07-22 17:08:00,84.2,72.9,29.81,NW,323,0.0,4.0,69,0.00,,---,0.00,VWS V14.01,2013-07-22 21:08:00,
2013-07-22 17:10:00,84.0,72.7,29.81,West,278,6.0,10.0,69,0.00,,---,0.00,VWS V14.01,2013-07-22 21:10:00,
2013-07-22 17:13:00,83.6,72.8,29.81,WSW,248,1.0,4.0,70,0.00,,---,0.00,VWS V14.01,2013-07-22 21:13:00,
2013-07-22 17:15:00,83.8,73.4,29.81,SW,229,5.0,8.0,71,0.00,,---,0.00,VWS V14.01,2013-07-22 21:15:00,
2013-07-22 17:18:00,83.3,70.3,29.81,WNW,302,9.0,9.0,65,0.00,,---,0.00,VWS V14.01,2013-07-22 21:18:00,
2013-07-22 17:20:00,84.0,72.7,29.81,NW,307,7.0,12.0,69,0.00,,---,0.00,VWS V14.01,2013-07-22 21:20:00,
2013-07-22 17:23:00,83.0,70.0,29.81,NW,318,1.0,4.0,65,0.00,,---,0.00,VWS V14.01,2013-07-22 21:23:00,
2013-07-22 17:25:00,84.4,72.7,29.81,WNW,297,5.0,7.0,68,0.00,,---,0.00,VWS V14.01,2013-07-22 21:25:00,
2013-07-22 17:28:00,83.0,70.5,29.81,South,184,2.0,6.0,66,0.00,,---,0.00,VWS V14.01,2013-07-22 21:28:00,
2013-07-22 17:30:00,84.3,72.6,29.81,WNW,291,4.0,11.0,68,0.00,,---,0.00,VWS V14.01,2013-07-22 21:30:00,
2013-07-22 17:33:00,83.3,70.3,29.81,WNW,288,3.0,6.0,65,0.00,,---,0.00,VWS V14.01,2013-07-22 21:33:00,
2013-07-22 17:35:00,84.3,72.2,29.81,West,263,5.0,13.0,67,0.00,,---,0.00,VWS V14.01,2013-07-22 21:35:00,
2013-07-22 17:38:00,83.4,69.5,29.81,SW,214,2.0,8.0,63,0.00,,---,0.00,VWS V14.01,2013-07-22 21:38:00,
2013-07-22 17:40:00,84.2,72.1,29.81,West,261,5.0,9.0,67,0.00,,---,0.00,VWS V14.01,2013-07-22 21:40:00,
2013-07-22 17:43:00,84.1,70.6,29.80,SW,225,1.0,6.0,64,0.00,,---,0.00,VWS V14.01,2013-07-22 21:43:00,
2013-07-22 17:45:00,84.0,72.3,29.81,SW,232,3.0,7.0,68,0.00,,---,0.00,VWS V14.01,2013-07-22 21:45:00,
2013-07-22 17:48:00,84.6,70.6,29.80,WNW,292,2.0,6.0,63,0.00,,---,0.00,VWS V14.01,2013-07-22 21:48:00,
2013-07-22 17:50:00,83.9,72.7,29.81,West,264,1.0,11.0,69,0.00,,---,0.00,VWS V14.01,2013-07-22 21:50:00,
2013-07-22 17:54:00,84.3,70.8,29.80,WSW,240,0.0,6.0,64,0.00,,---,0.00,VWS V14.01,2013-07-22 21:54:00,
2013-07-22 17:55:00,84.2,72.9,29.81,SSW,210,0.0,3.0,69,0.00,,---,0.00,VWS V14.01,2013-07-22 21:55:00,
2013-07-22 17:59:00,84.6,70.6,29.80,WNW,290,1.0,6.0,63,0.00,,---,0.00,VWS V14.01,2013-07-22 21:59:00,
2013-07-22 18:00:00,84.1,72.4,29.81,South,179,0.0,6.0,68,0.00,,---,0.00,VWS V14.01,2013-07-22 22:00:00,
2013-07-22 18:04:00,83.9,69.5,29.80,WNW,285,1.0,6.0,62,0.00,,---,0.00,VWS V14.01,2013-07-22 22:04:00,
2013-07-22 18:05:00,84.5,72.8,29.81,WSW,238,4.0,4.0,68,0.00,,---,0.00,VWS V14.01,2013-07-22 22:05:00,
2013-07-22 18:09:00,84.0,69.6,29.80,NW,307,1.0,3.0,62,0.00,,---,0.00,VWS V14.01,2013-07-22 22:09:00,
2013-07-22 18:10:00,84.2,72.5,29.81,West,261,3.0,7.0,68,0.00,,---,0.00,VWS V14.01,2013-07-22 22:10:00,
2013-07-22 18:14:00,84.4,70.4,29.80,SW,233,1.0,3.0,63,0.00,,---,0.00,VWS V14.01,2013-07-22 22:14:00,
2013-07-22 18:15:00,83.6,71.9,29.81,SW,230,1.0,4.0,68,0.00,,---,0.00,VWS V14.01,2013-07-22 22:15:00,
2013-07-22 18:19:00,84.1,69.7,29.81,WNW,288,5.0,5.0,62,0.00,,---,0.00,VWS V14.01,2013-07-22 22:19:00,
2013-07-22 18:20:00,83.1,69.7,29.81,WSW,240,2.0,9.0,64,0.00,,---,0.00,VWS V14.01,2013-07-22 22:20:00,
2013-07-22 18:24:00,83.2,68.8,29.81,West,266,1.0,5.0,62,0.00,,---,0.00,VWS V14.01,2013-07-22 22:24:00,
2013-07-22 18:25:00,83.0,70.5,29.81,SW,233,0.0,4.0,66,0.00,,---,0.00,VWS V14.01,2013-07-22 22:25:00,
2013-07-22 18:29:00,82.6,70.1,29.80,SSW,198,1.0,4.0,66,0.00,,---,0.00,VWS V14.01,2013-07-22 22:29:00,
2013-07-22 18:30:00,83.2,69.8,29.81,NNW,327,4.0,6.0,64,0.00,,---,0.00,VWS V14.01,2013-07-22 22:30:00,
2013-07-22 18:34:00,82.2,70.2,29.81,SW,219,0.0,3.0,67,0.00,,---,0.00,VWS V14.01,2013-07-22 22:34:00,
2013-07-22 18:35:00,83.3,69.9,29.81,SSE,153,1.0,6.0,64,0.00,,---,0.00,VWS V14.01,2013-07-22 22:35:00,
2013-07-22 18:39:00,81.7,69.7,29.81,West,276,0.0,3.0,67,0.00,,---,0.00,VWS V14.01,2013-07-22 22:39:00,
2013-07-22 18:40:00,83.6,70.1,29.81,West,278,6.0,8.0,64,0.00,,---,0.00,VWS V14.01,2013-07-22 22:40:00,
2013-07-22 18:44:00,81.7,71.0,29.81,SW,233,1.0,2.0,70,0.00,,---,0.00,VWS V14.01,2013-07-22 22:44:00,
2013-07-22 18:45:00,84.3,71.3,29.80,WSW,257,0.0,6.0,65,0.00,,---,0.00,VWS V14.01,2013-07-22 22:45:00,
2013-07-22 18:49:00,81.3,69.7,29.81,South,169,0.0,7.0,68,0.00,,---,0.00,VWS V14.01,2013-07-22 22:49:00,
2013-07-22 18:50:00,84.6,70.6,29.80,West,267,0.0,6.0,63,0.00,,---,0.00,VWS V14.01,2013-07-22 22:50:00,
2013-07-22 18:54:00,81.2,70.1,29.81,SW,224,2.0,3.0,69,0.00,,---,0.00,VWS V14.01,2013-07-22 22:54:00,
2013-07-22 18:55:00,84.4,70.9,29.80,North,349,0.0,6.0,64,0.00,,---,0.00,VWS V14.01,2013-07-22 22:55:00,
2013-07-22 18:59:00,80.7,69.6,29.82,WSW,257,2.0,3.0,69,0.00,,---,0.00,VWS V14.01,2013-07-22 22:59:00,
2013-07-22 19:00:00,84.5,69.6,29.80,NW,314,1.0,6.0,61,0.00,,---,0.00,VWS V14.01,2013-07-22 23:00:00,
2013-07-22 19:04:00,80.3,69.6,29.82,South,178,2.0,2.0,70,0.00,,---,0.00,VWS V14.01,2013-07-22 23:04:00,
2013-07-22 19:05:00,83.8,70.8,29.80,ESE,117,1.0,6.0,65,0.00,,---,0.00,VWS V14.01,2013-07-22 23:05:00,
2013-07-22 19:09:00,80.0,69.3,29.82,WNW,288,0.0,3.0,70,0.00,,---,0.00,VWS V14.01,2013-07-22 23:09:00,
2013-07-22 19:10:00,84.0,70.1,29.80,NW,307,0.0,3.0,63,0.00,,---,0.00,VWS V14.01,2013-07-22 23:10:00,
2013-07-22 19:14:00,79.7,69.9,29.82,SW,231,0.0,4.0,72,0.00,,---,0.00,VWS V14.01,2013-07-22 23:14:00,
2013-07-22 19:15:00,84.4,70.0,29.80,SSW,203,2.0,4.0,62,0.00,,---,0.00,VWS V14.01,2013-07-22 23:15:00,
2013-07-22 19:19:00,79.6,69.4,29.83,WSW,237,1.0,2.0,71,0.00,,---,0.00,VWS V14.01,2013-07-22 23:19:00,
2013-07-22 19:20:00,83.8,69.4,29.81,West,259,0.0,5.0,62,0.00,,---,0.00,VWS V14.01,2013-07-22 23:20:00,
2013-07-22 19:24:00,79.5,69.7,29.83,WSW,239,0.0,1.0,72,0.00,,---,0.00,VWS V14.01,2013-07-22 23:24:00,
2013-07-22 19:25:00,83.1,69.2,29.81,WNW,300,2.0,5.0,63,0.00,,---,0.00,VWS V14.01,2013-07-22 23:25:00,
2013-07-22 19:29:00,79.3,69.9,29.83,SE,137,0.0,1.0,73,0.00,,---,0.00,VWS V14.01,2013-07-22 23:29:00,
2013-07-22 19:30:00,82.6,69.7,29.80,WSW,243,3.0,4.0,65,0.00,,---,0.00,VWS V14.01,2013-07-22 23:30:00,
2013-07-22 19:34:00,79.0,69.2,29.84,WSW,248,1.0,4.0,72,0.00,,---,0.00,VWS V14.01,2013-07-22 23:34:00,
2013-07-22 19:35:00,82.1,70.1,29.81,SSW,195,0.0,3.0,67,0.00,,---,0.00,VWS V14.01,2013-07-22 23:35:00,
2013-07-22 19:39:00,78.8,70.2,29.84,WNW,282,0.0,2.0,75,0.00,,---,0.00,VWS V14.01,2013-07-22 23:39:00,
2013-07-22 19:40:00,81.6,70.4,29.81,West,276,0.0,3.0,69,0.00,,---,0.00,VWS V14.01,2013-07-22 23:40:00,
2013-07-22 19:44:00,78.7,70.1,29.84,SSE,150,0.0,1.0,75,0.00,,---,0.00,VWS V14.01,2013-07-22 23:44:00,
2013-07-22 19:45:00,81.7,69.7,29.81,SW,233,2.0,2.0,67,0.00,,---,0.00,VWS V14.01,2013-07-22 23:45:00,
2013-07-22 19:49:00,78.6,69.6,29.84,WSW,257,0.0,3.0,74,0.00,,---,0.00,VWS V14.01,2013-07-22 23:49:00,
2013-07-22 19:50:00,81.2,69.2,29.81,West,262,0.0,7.0,67,0.00,,---,0.00,VWS V14.01,2013-07-22 23:50:00,
2013-07-22 19:54:00,78.5,69.5,29.85,WSW,250,1.0,2.0,74,0.00,,---,0.00,VWS V14.01,2013-07-22 23:54:00,
2013-07-22 19:55:00,81.1,69.6,29.81,SW,228,1.0,3.0,68,0.00,,---,0.00,VWS V14.01,2013-07-22 23:55:00,
2013-07-22 19:59:00,78.4,69.4,29.85,West,269,0.0,3.0,74,0.00,,---,0.00,VWS V14.01,2013-07-22 23:59:00,
2013-07-22 20:00:00,80.7,70.0,29.82,SW,230,1.0,3.0,70,0.00,,---,0.00,VWS V14.01,2013-07-23 00:00:00,
2013-07-22 20:04:00,78.5,69.1,29.85,WSW,254,1.0,3.0,73,0.00,,---,0.00,VWS V14.01,2013-07-23 00:04:00,
2013-07-22 20:05:00,80.2,69.5,29.82,SSW,210,1.0,3.0,70,0.00,,---,0.00,VWS V14.01,2013-07-23 00:05:00,
2013-07-22 20:09:00,78.3,70.1,29.85,SW,236,0.0,1.0,76,0.00,,---,0.00,VWS V14.01,2013-07-23 00:09:00,
2013-07-22 20:10:00,80.0,69.8,29.82,WSW,256,0.0,3.0,71,0.00,,---,0.00,VWS V14.01,2013-07-23 00:10:00,
2013-07-22 20:14:00,78.1,70.3,29.85,WSW,248,0.0,1.0,77,0.00,,---,0.00,VWS V14.01,2013-07-23 00:14:00,
2013-07-22 20:15:00,79.7,69.9,29.82,SW,232,1.0,4.0,72,0.00,,---,0.00,VWS V14.01,2013-07-23 00:15:00,
2013-07-22 20:19:00,77.7,70.3,29.86,WSW,248,0.0,1.0,78,0.00,,---,0.00,VWS V14.01,2013-07-23 00:19:00,
2013-07-22 20:20:00,79.6,69.4,29.83,WSW,237,0.0,2.0,71,0.00,,---,0.00,VWS V14.01,2013-07-23 00:20:00,
2013-07-22 20:24:00,77.2,69.4,29.86,West,281,2.0,3.0,77,0.00,,---,0.00,VWS V14.01,2013-07-23 00:24:00,
2013-07-22 20:25:00,79.5,69.7,29.83,SE,136,1.0,1.0,72,0.00,,---,0.00,VWS V14.01,2013-07-23 00:25:00,
2013-07-22 20:29:00,77.2,69.8,29.86,SW,224,0.0,1.0,78,0.00,,---,0.00,VWS V14.01,2013-07-23 00:29:00,
2013-07-22 20:30:00,79.3,70.3,29.83,SE,144,1.0,2.0,74,0.00,,---,0.00,VWS V14.01,2013-07-23 00:30:00,
2013-07-22 20:34:00,77.2,69.4,29.86,SW,232,0.0,3.0,77,0.00,,---,0.00,VWS V14.01,2013-07-23 00:34:00,
2013-07-22 20:35:00,79.0,69.2,29.84,WSW,250,0.0,4.0,72,0.00,,---,0.00,VWS V14.01,2013-07-23 00:35:00,
2013-07-22 20:39:00,77.2,69.4,29.87,SSE,164,0.0,6.0,77,0.00,,---,0.00,VWS V14.01,2013-07-23 00:39:00,
2013-07-22 20:40:00,78.7,70.5,29.84,WNW,282,0.0,2.0,76,0.00,,---,0.00,VWS V14.01,2013-07-23 00:40:00,
2013-07-22 20:44:00,77.1,69.3,29.87,WSW,240,0.0,3.0,77,0.00,,---,0.00,VWS V14.01,2013-07-23 00:44:00,
2013-07-22 20:45:00,78.7,70.1,29.84,SSE,150,0.0,1.0,75,0.00,,---,0.00,VWS V14.01,2013-07-23 00:45:00,
2013-07-22 20:49:00,76.9,69.5,29.87,WSW,242,1.0,2.0,78,0.00,,---,0.00,VWS V14.01,2013-07-23 00:49:00,
2013-07-22 20:50:00,78.6,69.6,29.84,SE,124,0.0,3.0,74,0.00,,---,0.00,VWS V14.01,2013-07-23 00:50:00,
2013-07-22 20:54:00,76.6,69.6,29.87,WSW,239,1.0,2.0,79,0.00,,---,0.00,VWS V14.01,2013-07-23 00:54:00,
2013-07-22 20:55:00,78.5,69.5,29.85,West,275,1.0,2.0,74,0.00,,---,0.00,VWS V14.01,2013-07-23 00:55:00,
2013-07-22 20:59:00,76.3,69.7,29.87,SW,218,0.0,4.0,80,0.00,,---,0.00,VWS V14.01,2013-07-23 00:59:00,
2013-07-22 21:00:00,78.4,69.0,29.85,West,268,0.0,3.0,73,0.00,,---,0.00,VWS V14.01,2013-07-23 01:00:00,
2013-07-22 21:04:00,76.0,69.4,29.88,SW,223,0.0,4.0,80,0.00,,---,0.00,VWS V14.01,2013-07-23 01:04:00,
2013-07-22 21:05:00,78.5,69.9,29.85,WSW,254,0.0,3.0,75,0.00,,---,0.00,VWS V14.01,2013-07-23 01:05:00,
2013-07-22 21:09:00,75.7,69.5,29.87,SSE,149,0.0,2.0,81,0.00,,---,0.00,VWS V14.01,2013-07-23 01:09:00,
2013-07-22 21:10:00,78.3,69.7,29.85,WSW,238,0.0,1.0,75,0.00,,---,0.00,VWS V14.01,2013-07-23 01:10:00,
2013-07-22 21:14:00,75.3,69.4,29.87,WSW,246,0.0,2.0,82,0.00,,---,0.00,VWS V14.01,2013-07-23 01:14:00,
2013-07-22 21:15:00,78.1,70.3,29.85,WSW,248,0.0,1.0,77,0.00,,---,0.00,VWS V14.01,2013-07-23 01:15:00,
2013-07-22 21:19:00,75.0,69.1,29.87,SW,233,1.0,2.0,82,0.00,,---,0.00,VWS V14.01,2013-07-23 01:19:00,
2013-07-22 21:20:00,77.7,70.3,29.86,WSW,248,0.0,1.0,78,0.00,,---,0.00,VWS V14.01,2013-07-23 01:20:00,
2013-07-22 21:24:00,74.9,69.4,29.87,WSW,247,0.0,2.0,83,0.00,,---,0.00,VWS V14.01,2013-07-23 01:24:00,
2013-07-22 21:25:00,77.3,69.5,29.86,NW,307,1.0,3.0,77,0.00,,---,0.00,VWS V14.01,2013-07-23 01:25:00,
2013-07-22 21:29:00,74.6,69.1,29.87,SSW,200,0.0,3.0,83,0.00,,---,0.00,VWS V14.01,2013-07-23 01:29:00,
2013-07-22 21:30:00,77.2,69.8,29.86,SW,219,0.0,1.0,78,0.00,,---,0.00,VWS V14.01,2013-07-23 01:30:00,
2013-07-22 21:34:00,74.5,69.0,29.87,SW,222,0.0,1.0,83,0.00,,---,0.00,VWS V14.01,2013-07-23 01:34:00,
2013-07-22 21:35:00,77.2,69.4,29.86,SW,233,0.0,3.0,77,0.00,,---,0.00,VWS V14.01,2013-07-23 01:35:00,
2013-07-22 21:39:00,74.2,69.4,29.86,SW,231,1.0,2.0,85,0.00,,---,0.00,VWS V14.01,2013-07-23 01:39:00,
2013-07-22 21:40:00,77.2,69.4,29.87,SE,140,0.0,6.0,77,0.00,,---,0.00,VWS V14.01,2013-07-23 01:40:00,
2013-07-22 21:44:00,74.3,68.8,29.87,WSW,251,1.0,3.0,83,0.00,,---,0.00,VWS V14.01,2013-07-23 01:44:00,
2013-07-22 21:45:00,77.1,69.3,29.87,SW,217,2.0,3.0,77,0.00,,---,0.00,VWS V14.01,2013-07-23 01:45:00,
2013-07-22 21:49:00,74.4,68.9,29.86,WSW,246,0.0,3.0,83,0.00,,---,0.00,VWS V14.01,2013-07-23 01:49:00,
2013-07-22 21:50:00,76.9,69.5,29.87,SSW,195,0.0,2.0,78,0.00,,---,0.00,VWS V14.01,2013-07-23 01:50:00,
2013-07-22 21:54:00,74.4,69.3,29.86,SW,235,0.0,1.0,84,0.00,,---,0.00,VWS V14.01,2013-07-23 01:54:00,
2013-07-22 21:55:00,76.6,69.6,29.87,WSW,239,1.0,2.0,79,0.00,,---,0.00,VWS V14.01,2013-07-23 01:55:00,
2013-07-22 21:59:00,74.1,69.3,29.86,SW,235,0.0,1.0,85,0.00,,---,0.00,VWS V14.01,2013-07-23 01:59:00,
2013-07-22 22:00:00,76.3,69.7,29.87,SSW,198,2.0,4.0,80,0.00,,---,0.00,VWS V14.01,2013-07-23 02:00:00,
2013-07-22 22:04:00,73.6,69.2,29.87,SW,235,0.0,1.0,86,0.00,,---,0.00,VWS V14.01,2013-07-23 02:04:00,
2013-07-22 22:05:00,75.9,69.3,29.88,SW,219,2.0,4.0,80,0.00,,---,0.00,VWS V14.01,2013-07-23 02:05:00,
2013-07-22 22:10:00,73.3,68.9,29.86,SW,235,0.0,0.0,86,0.00,,---,0.00,VWS V14.01,2013-07-23 02:10:00,
2013-07-22 22:15:00,73.0,69.2,29.86,SW,236,0.0,0.0,88,0.00,,---,0.00,VWS V14.01,2013-07-23 02:15:00,
2013-07-22 22:20:00,72.7,68.9,29.86,SW,231,1.0,2.0,88,0.00,,---,0.00,VWS V14.01,2013-07-23 02:20:00,
2013-07-22 22:25:00,72.4,69.0,29.86,SE,140,0.0,1.0,89,0.00,,---,0.00,VWS V14.01,2013-07-23 02:25:00,
2013-07-22 22:30:00,72.1,69.0,29.86,SW,232,0.0,1.0,90,0.00,,---,0.00,VWS V14.01,2013-07-23 02:30:00,
2013-07-22 22:35:00,72.1,69.0,29.86,WSW,239,0.0,1.0,90,0.00,,---,0.00,VWS V14.01,2013-07-23 02:35:00,
2013-07-22 22:40:00,72.4,69.0,29.86,WSW,250,0.0,3.0,89,0.00,,---,0.00,VWS V14.01,2013-07-23 02:40:00,
2013-07-22 22:45:00,72.7,68.9,29.86,SW,236,0.0,0.0,88,0.00,,---,0.00,VWS V14.01,2013-07-23 02:45:00,
2013-07-22 22:50:00,72.5,68.8,29.86,SW,236,0.0,0.0,88,0.00,,---,0.00,VWS V14.01,2013-07-23 02:50:00,
2013-07-22 22:55:00,72.0,68.9,29.86,SW,236,0.0,0.0,90,0.00,,---,0.00,VWS V14.01,2013-07-23 02:55:00,
2013-07-22 23:00:00,71.6,68.8,29.86,SW,217,1.0,1.0,91,0.00,,---,0.00,VWS V14.01,2013-07-23 03:00:00,
2013-07-22 23:05:00,71.8,69.0,29.87,SW,232,0.0,0.0,91,0.00,,---,0.00,VWS V14.01,2013-07-23 03:05:00,
2013-07-22 23:10:00,72.0,68.9,29.87,WSW,245,2.0,2.0,90,0.00,,---,0.00,VWS V14.01,2013-07-23 03:10:00,
2013-07-22 23:15:00,72.2,69.1,29.87,SW,233,1.0,2.0,90,0.00,,---,0.00,VWS V14.01,2013-07-23 03:15:00,
2013-07-22 23:20:00,72.4,69.3,29.87,WSW,242,0.0,2.0,90,0.00,,---,0.00,VWS V14.01,2013-07-23 03:20:00,
2013-07-22 23:25:00,72.4,69.3,29.87,WSW,252,0.0,1.0,90,0.00,,---,0.00,VWS V14.01,2013-07-23 03:25:00,
2013-07-22 23:30:00,72.4,69.3,29.87,WSW,255,0.0,0.0,90,0.00,,---,0.00,VWS V14.01,2013-07-23 03:30:00,
2013-07-22 23:35:00,72.5,69.4,29.87,WSW,239,1.0,1.0,90,0.00,,---,0.00,VWS V14.01,2013-07-23 03:35:00,
2013-07-22 23:40:00,72.7,69.3,29.87,WSW,250,2.0,2.0,89,0.00,,---,0.00,VWS V14.01,2013-07-23 03:40:00,
2013-07-22 23:45:00,72.7,69.3,29.87,WSW,257,1.0,1.0,89,0.00,,---,0.00,VWS V14.01,2013-07-23 03:45:00,
2013-07-22 23:50:00,72.6,69.2,29.87,SW,221,1.0,2.0,89,0.00,,---,0.00,VWS V14.01,2013-07-23 03:50:00,
2013-07-22 23:55:00,72.4,69.3,29.87,SW,225,0.0,0.0,90,0.00,,---,0.00,VWS V14.01,2013-07-23 03:55:00,